Location: Chaumontel
(49.1247°N, 2.4324°E)
Time: 08:57:09
(UTC+00:00)

RESURS DK-1 - Pass Details

Date: 03 February 2023
Orbit: 549 x 557 km, 69.9° (Epoch: 23 March)

Event Time Altitude Azimuth Distance (km) Brightness Sun altitude
Rises 18:09:32 0° 331° (NNW) 2,741 6.1 -13.2°
Reaches altitude 10° 18:11:45 10° 335° (NNW) 1,844 5.2 -13.6°
Maximum altitude 18:15:51 63° 57° (ENE) 626 2.3 -14.2°
Drops below altitude 10° 18:19:55 10° 139° (SE) 1,838 4.7 -14.9°
Enters shadow 18:20:16 - 140° (SE) 1,974 4.8 -15.0°
